Вернуться в каталог

STARLINK-32645

АктивенСвязьVLEO
NORAD 62321·PAYLOAD·🇺🇸 United States

Запущен Dec 13, 2024 с Vandenberg Space Force Base

Loading…

Ближайшие Пролёты (ближайшие 24 часа)

TLE

СвежийSource: CelesTrak SupGP

Эпоха: Sep 14, 2026, 21:06 UTC

1 62321C 24239W   26257.87965278  .00022302  00000+0  65932-3 0  2571
2 62321  53.1597  20.0588 0001234  71.4199 241.9513 15.34360156    10

Отслеживайте STARLINK-32645 в реальном времени с AllMySat

Download on the App Store